Rogers, AR

5:21 AM CST on November 19, 2017 (GMT -0600)
Rogers Municipal-Carter

Weather History for KROG - May, 2013

Change the Weather History Date:

Friday, May 10, 2013

  Actual Average Record
Temperature  
Mean Temperature 60 °F -  
Max Temperature 66 °F 71 °F 84 °F (2005)
Min Temperature 54 °F 53 °F 37 °F (1997)
Degree Days  
Heating Degree Days 4    
Growing Degree Days 10 (Base 50)    
Moisture  
Dew Point 57 °F    
Average Humidity 89    
Maximum Humidity 100    
Minimum Humidity 68    
Precipitation  
Precipitation 1.13 in - - ()
Sea Level Pressure  
Sea Level Pressure 29.98 in    
Wind  
Wind Speed 7 mph (WNW)    
Max Wind Speed 16 mph    
Max Gust Speed 20 mph    
Visibility 6 miles    
Events Fog , Rain , Thunderstorm    
Averages and records for this station are not official NWS values.
T = Trace of Precipitation, MM = Missing Value Source: NWS Daily Summary

Daily Weather History Graph

Daily Weather History Graph

Search for Another Location

Airport or City:

Trip Planner

Search our weather history database for the weather conditions in past years. The results will help you decide how hot, cold, wet, or windy it might be!

Date:

Astronomy

May. 10, 2013 Rise Set
Actual Time 6:13 AM CDT 8:12 PM CDT
Civil Twilight 5:45 AM CDT 8:40 PM CDT
Nautical Twilight 5:11 AM CDT 9:15 PM CDT
Astronomical Twilight 4:34 AM CDT 9:52 PM CDT
Moon 6:38 AM CDT (5/10) 9:01 PM CDT (5/10)
Length of Visible Light 14h 55m
Length of Day
13h 58m
New Moon, 0% of the Moon is Illuminated
May 10
New Moon
May 17
First Quarter
May 24
Full
May 31
Last Quarter
Jun 8
New

Hourly Weather History & Observations

Time (CDT) Temp. Dew Point Humidity Pressure Visibility Wind Dir Wind Speed Gust Speed Precip Events Conditions
12:02 AM 59.0 °F 57.2 °F 94% 29.98 in 4.0 mi SE 13.8 mph 19.6 mph 0.93 in Rain , Thunderstorm Heavy Thunderstorms and Rain
12:08 AM 59.0 °F 57.2 °F 94% 29.98 in 5.0 mi SSE 8.1 mph - 1.02 in Rain , Thunderstorm Heavy Thunderstorms and Rain
12:15 AM 59.0 °F 57.2 °F 94% 29.97 in 4.0 mi South 16.1 mph - 0.05 in Rain , Thunderstorm Heavy Thunderstorms and Rain
12:19 AM 60.8 °F 57.2 °F 88% 29.95 in 4.0 mi SE 16.1 mph - 0.13 in Rain , Thunderstorm Heavy Thunderstorms and Rain
12:37 AM 59.0 °F 57.2 °F 94% 29.97 in 6.0 mi NNW 9.2 mph - 0.29 in Rain , Thunderstorm Heavy Thunderstorms and Rain
12:41 AM 59.0 °F 57.2 °F 94% 29.96 in 5.0 mi NE 10.4 mph - 0.34 in Rain , Thunderstorm Heavy Thunderstorms and Rain
12:46 AM 59.0 °F 57.2 °F 94% 30.00 in 5.0 mi WSW 8.1 mph - 0.38 in Rain , Thunderstorm Heavy Rain
12:51 AM 59.0 °F 57.2 °F 94% 30.00 in 6.0 mi WSW 3.5 mph - 0.40 in Rain , Thunderstorm Thunderstorms and Rain
12:57 AM 59.0 °F 57.2 °F 94% 30.01 in 7.0 mi West 5.8 mph - 0.43 in Rain , Thunderstorm Thunderstorms and Rain
12:59 AM 59.0 °F 57.9 °F 96% 29.98 in 5.0 mi West 3.5 mph - 0.46 in Rain , Thunderstorm Heavy Thunderstorms and Rain
1:05 AM 59.0 °F 57.2 °F 94% 30.00 in 2.0 mi Calm Calm - 0.10 in Rain , Thunderstorm Heavy Rain
1:08 AM 59.0 °F 57.2 °F 94% 30.00 in 1.8 mi Calm Calm - 0.12 in Rain , Thunderstorm Heavy Rain
1:14 AM 59.0 °F 57.2 °F 94% 30.00 in 3.0 mi NNE 4.6 mph - 0.15 in Rain , Thunderstorm Thunderstorms and Rain
1:32 AM 59.0 °F 57.2 °F 94% 29.97 in 4.0 mi NNW 3.5 mph - 0.24 in Rain , Thunderstorm Rain
1:57 AM 59.0 °F 57.9 °F 96% 29.94 in 5.0 mi Calm Calm - 0.30 in Rain , Thunderstorm Rain
2:02 AM 59.0 °F 57.2 °F 94% 29.97 in 5.0 mi WSW 5.8 mph - 0.03 in Rain Rain
2:07 AM 59.0 °F 57.2 °F 94% 29.97 in 7.0 mi SW 6.9 mph - 0.06 in Rain , Thunderstorm Thunderstorms and Rain
2:31 AM 59.0 °F 57.2 °F 94% 29.97 in 10.0 mi West 5.8 mph - 0.18 in Rain Rain
2:57 AM 59.0 °F 57.9 °F 96% 29.92 in 7.0 mi SSE 8.1 mph - 0.30 in Rain Rain
3:57 AM 59.0 °F 57.9 °F 96% 29.91 in 10.0 mi SSW 8.1 mph - 0.06 in   Mostly Cloudy
4:04 AM 59.0 °F 57.2 °F 94% 29.95 in 10.0 mi WSW 5.8 mph - 0.00 in Rain Light Rain
4:57 AM 59.0 °F 57.9 °F 96% 29.90 in 10.0 mi South 4.6 mph - 0.01 in   Partly Cloudy
5:57 AM 57.2 °F 57.2 °F 100% 29.94 in 1.5 mi Calm Calm - N/A   Clear
5:59 AM 57.2 °F 57.2 °F 100% 29.94 in 1.0 mi Calm Calm - N/A   Clear
6:01 AM 57.2 °F 55.4 °F 94% 29.94 in 0.8 mi West 3.5 mph - N/A   Clear
6:06 AM 55.4 °F 55.4 °F 100% 29.94 in 0.5 mi West 3.5 mph - N/A Fog Fog
6:10 AM 55.4 °F 55.4 °F 100% 29.94 in 0.2 mi West 3.5 mph - N/A Fog Fog
6:16 AM 57.2 °F 55.4 °F 94% 29.94 in 0.2 mi West 3.5 mph - N/A Fog Fog
6:22 AM 57.2 °F 55.4 °F 94% 29.94 in 0.5 mi WNW 3.5 mph - N/A Fog Fog
6:30 AM 57.2 °F 55.4 °F 94% 29.94 in 0.8 mi Calm Calm - N/A   Mostly Cloudy
6:34 AM 57.2 °F 55.4 °F 94% 29.95 in 1.0 mi Calm Calm - N/A   Mostly Cloudy
6:37 AM 57.2 °F 55.4 °F 94% 29.95 in 1.5 mi WNW 3.5 mph - N/A   Overcast
6:41 AM 57.2 °F 57.2 °F 100% 29.95 in 2.5 mi Calm Calm - N/A   Overcast
6:47 AM 57.2 °F 57.2 °F 100% 29.95 in 3.0 mi Calm Calm - N/A   Overcast
6:57 AM 57.9 °F 57.0 °F 97% 29.94 in 3.0 mi West 3.5 mph - N/A   Overcast
7:00 AM 57.2 °F 57.2 °F 100% 29.95 in 2.0 mi West 3.5 mph - N/A   Overcast
7:03 AM 57.2 °F 57.2 °F 100% 29.95 in 1.5 mi West 3.5 mph - N/A   Overcast
7:13 AM 57.2 °F 57.2 °F 100% 29.96 in 2.0 mi Calm Calm - N/A   Overcast
7:18 AM 57.2 °F 57.2 °F 100% 29.96 in 2.5 mi SW 3.5 mph - N/A   Overcast
7:21 AM 57.2 °F 57.2 °F 100% 29.96 in 3.0 mi SSW 3.5 mph - N/A   Overcast
7:57 AM 59.0 °F 59.0 °F 100% 29.96 in 6.0 mi SSW 4.6 mph - N/A   Overcast
8:22 AM 60.8 °F 59.0 °F 94% 29.99 in 6.0 mi WSW 4.6 mph - N/A   Overcast
8:42 AM 60.8 °F 59.0 °F 94% 29.99 in 4.0 mi NW 4.6 mph - N/A   Overcast
8:50 AM 60.8 °F 59.0 °F 94% 30.00 in 2.0 mi WNW 6.9 mph - N/A   Overcast
8:57 AM 60.1 °F 59.0 °F 96% 29.98 in 2.5 mi WNW 5.8 mph - N/A   Overcast
9:02 AM 60.8 °F 59.0 °F 94% 30.00 in 3.0 mi WNW 4.6 mph - N/A   Overcast
9:42 AM 62.6 °F 60.8 °F 94% 30.01 in 9.0 mi WNW 9.2 mph - N/A   Overcast
9:51 AM 62.6 °F 60.8 °F 94% 30.00 in 10.0 mi NW 8.1 mph - N/A   Overcast
9:57 AM 62.6 °F 60.8 °F 94% 30.00 in 10.0 mi NW 8.1 mph - N/A   Overcast
9:59 AM 62.1 °F 60.1 °F 93% 29.98 in 10.0 mi NW 9.2 mph - N/A   Overcast
10:12 AM 62.6 °F 59.0 °F 88% 30.00 in 10.0 mi Variable 6.9 mph - N/A   Overcast
10:18 AM 62.6 °F 60.8 °F 94% 30.00 in 10.0 mi NW 6.9 mph - N/A   Overcast
10:36 AM 62.6 °F 59.0 °F 88% 30.00 in 10.0 mi NW 6.9 mph - N/A   Overcast
10:45 AM 62.6 °F 59.0 °F 88% 30.00 in 10.0 mi NNW 6.9 mph - N/A   Overcast
10:57 AM 62.1 °F 59.0 °F 90% 29.98 in 10.0 mi Variable 4.6 mph - N/A   Overcast
11:13 AM 64.4 °F 60.8 °F 88% 30.00 in 10.0 mi WNW 5.8 mph - N/A   Mostly Cloudy
11:18 AM 64.4 °F 59.0 °F 83% 30.01 in 10.0 mi West 5.8 mph - N/A   Mostly Cloudy
11:57 AM 66.0 °F 59.0 °F 78% 29.99 in 10.0 mi WNW 5.8 mph - N/A   Overcast
12:57 PM 66.0 °F 60.1 °F 81% 29.98 in 10.0 mi NNW 10.4 mph 17.3 mph N/A   Mostly Cloudy
1:47 PM 64.4 °F 57.2 °F 77% 30.01 in 10.0 mi NW 9.2 mph - N/A   Scattered Clouds
1:57 PM 66.2 °F 57.2 °F 73% 30.01 in 10.0 mi NW 8.1 mph - N/A   Mostly Cloudy
1:59 PM 66.2 °F 57.2 °F 73% 30.01 in 10.0 mi NW 6.9 mph - N/A   Mostly Cloudy
2:11 PM 64.4 °F 57.2 °F 77% 30.01 in 10.0 mi NNW 8.1 mph 17.3 mph N/A   Mostly Cloudy
2:14 PM 64.4 °F 57.2 °F 77% 30.01 in 10.0 mi NW 10.4 mph - N/A   Mostly Cloudy
2:27 PM 66.2 °F 57.2 °F 73% 30.01 in 10.0 mi North 10.4 mph - N/A   Overcast
2:57 PM 66.0 °F 55.9 °F 70% 29.99 in 10.0 mi North 9.2 mph - N/A   Mostly Cloudy
3:08 PM 66.2 °F 57.2 °F 73% 30.01 in 10.0 mi WNW 11.5 mph 17.3 mph N/A   Mostly Cloudy
3:57 PM 66.9 °F 55.9 °F 68% 29.99 in 10.0 mi NW 12.7 mph - N/A   Mostly Cloudy
4:57 PM 66.0 °F 55.9 °F 70% 29.98 in 10.0 mi NW 10.4 mph - N/A   Overcast
5:31 PM 64.4 °F 55.4 °F 73% 30.00 in 10.0 mi NW 11.5 mph - N/A   Overcast
5:39 PM 64.4 °F 55.4 °F 73% 30.00 in 10.0 mi NW 11.5 mph - N/A   Mostly Cloudy
5:57 PM 64.9 °F 55.9 °F 73% 29.97 in 10.0 mi NNW 12.7 mph 16.1 mph N/A   Scattered Clouds
6:54 PM 64.4 °F 53.6 °F 68% 29.99 in 10.0 mi Variable 4.6 mph - N/A   Mostly Cloudy
6:57 PM 64.0 °F 54.0 °F 70% 29.98 in 10.0 mi NNW 4.6 mph - N/A   Mostly Cloudy
7:01 PM 64.4 °F 53.6 °F 68% 30.00 in 10.0 mi NNW 6.9 mph - N/A   Scattered Clouds
7:57 PM 62.1 °F 52.0 °F 70% 30.00 in 10.0 mi NNW 4.6 mph - N/A   Mostly Cloudy
8:57 PM 59.0 °F 52.0 °F 78% 30.02 in 10.0 mi NNW 5.8 mph - N/A   Partly Cloudy
9:06 PM 57.2 °F 51.8 °F 82% 30.04 in 10.0 mi NNW 5.8 mph - N/A   Mostly Cloudy
9:57 PM 57.9 °F 53.1 °F 84% 30.04 in 10.0 mi North 4.6 mph - N/A   Mostly Cloudy
10:32 PM 57.2 °F 53.6 °F 88% 30.07 in 10.0 mi North 4.6 mph - N/A   Scattered Clouds
10:57 PM 55.9 °F 53.1 °F 90% 30.07 in 10.0 mi NNW 3.5 mph - N/A   Partly Cloudy
11:57 PM 54.0 °F 52.0 °F 93% 30.06 in 8.0 mi Calm Calm - N/A   Clear